Location: Mohawk View
(42.7837°N, 73.7885°W)
Time: 23:53:35
(UTC+00:00)

NOSS 2-2 (C) - Pass Details

Date: 17 June 2021
Orbit: 454 x 1753 km, 63.3° (Epoch: 30 July)

Event Time Altitude Azimuth Distance (km) Brightness Sun altitude
Exits shadow 08:09:12 12° 253° (WSW) 1,455 4.9 -10.3°
Maximum altitude 08:11:55 31° 315° (NW) 839 4.3 -9.9°
Drops below altitude 10° 08:15:14 10° 19° (NNE) 1,718 7.0 -9.5°
Sets 08:17:45 0° 30° (NNE) 2,728 8.6 -9.2°
